RYR2JH LEVC-GCTS

Flight info

Callsign RYR2JH
Flight time N/A
Altitude 35000
Route ASTRO M985 PIMOS N869 GALTO UN869 RUSIK
Aircraft B738/M-SDE3FGILRWY/SB1

Departure

Time 2026-04-27 16:13
Airport Valencia Airport (LEVC)

Arrival

Time N/A
Airport Tenerife Sur Airport (GCTS)
Time Latitude Longitude Altitude Speed Heading
2026-04-27 15:45 39.49048 -0.47387 208 ft 0 kts 22°
2026-04-27 15:45 39.49051 -0.47386 208 ft 0 kts 22°
2026-04-27 16:02 39.49030 -0.47397 208 ft 4 kts 31°
2026-04-27 16:02 39.49009 -0.47418 212 ft 4 kts 50°
2026-04-27 16:02 39.48997 -0.47447 215 ft 4 kts 82°
2026-04-27 16:03 39.48998 -0.47476 211 ft 1 kts 116°
2026-04-27 16:03 39.48999 -0.47476 208 ft 0 kts 116°
2026-04-27 16:04 39.48998 -0.47476 208 ft 0 kts 115°
2026-04-27 16:05 39.48999 -0.47474 208 ft 0 kts 94°
2026-04-27 16:05 39.49003 -0.47471 208 ft 0 kts 40°
2026-04-27 16:05 39.49005 -0.47473 213 ft 0 kts 360°
2026-04-27 16:05 39.49007 -0.47481 208 ft 2 kts 286°
2026-04-27 16:06 39.49016 -0.47522 208 ft 6 kts 292°
2026-04-27 16:06 39.49037 -0.47578 214 ft 7 kts 296°
2026-04-27 16:06 39.49058 -0.47638 208 ft 8 kts 288°
2026-04-27 16:06 39.49055 -0.47706 213 ft 8 kts 254°
2026-04-27 16:07 39.49039 -0.47785 215 ft 10 kts 256°
2026-04-27 16:07 39.49029 -0.47882 208 ft 12 kts 283°
2026-04-27 16:07 39.49066 -0.47988 214 ft 14 kts 296°
2026-04-27 16:07 39.49111 -0.48108 215 ft 15 kts 296°
2026-04-27 16:08 39.49157 -0.48227 210 ft 14 kts 296°
2026-04-27 16:08 39.49201 -0.48341 218 ft 14 kts 296°
2026-04-27 16:08 39.49242 -0.48450 212 ft 13 kts 296°
2026-04-27 16:08 39.49282 -0.48554 212 ft 13 kts 297°
2026-04-27 16:09 39.49320 -0.48656 210 ft 12 kts 296°
2026-04-27 16:09 39.49399 -0.48863 215 ft 15 kts 296°
2026-04-27 16:09 39.49449 -0.48992 208 ft 18 kts 296°
2026-04-27 16:10 39.49572 -0.49321 215 ft 22 kts 296°
2026-04-27 16:10 39.49707 -0.49672 215 ft 21 kts 296°
2026-04-27 16:11 39.49771 -0.49839 208 ft 19 kts 296°
2026-04-27 16:11 39.49702 -0.50014 213 ft 13 kts 206°
2026-04-27 16:12 39.49562 -0.49818 213 ft 48 kts 116°
2026-04-27 16:12 39.49308 -0.49149 213 ft 115 kts 116°
2026-04-27 16:12 39.48315 -0.46559 725 ft 182 kts 116°
2026-04-27 16:13 39.47738 -0.45140 1723 ft 169 kts 117°
2026-04-27 16:13 39.45954 -0.42992 2721 ft 209 kts 165°
2026-04-27 16:13 39.44582 -0.42178 2904 ft 227 kts 133°
2026-04-27 16:14 39.43372 -0.39097 3627 ft 242 kts 125°
2026-04-27 16:14 39.39581 -0.37681 4996 ft 269 kts 195°
2026-04-27 16:15 39.36970 -0.41027 6557 ft 284 kts 252°
2026-04-27 16:15 39.36408 -0.46145 8023 ft 292 kts 264°
2026-04-27 16:16 39.36102 -0.50550 9306 ft 294 kts 263°
2026-04-27 16:16 39.35665 -0.55897 10554 ft 309 kts 263°
2026-04-27 16:17 39.35130 -0.61796 11024 ft 347 kts 262°
2026-04-27 16:17 39.34361 -0.68029 12372 ft 353 kts 255°
2026-04-27 16:18 39.32681 -0.73997 13812 ft 357 kts 244°
2026-04-27 16:18 39.30155 -0.79546 15115 ft 365 kts 233°
2026-04-27 16:19 39.28641 -0.82178 15850 ft 367 kts 232°
2026-04-27 16:19 39.27105 -0.84827 16543 ft 370 kts 232°
2026-04-27 16:20 39.22358 -0.92857 18445 ft 380 kts 231°
2026-04-27 16:20 39.20741 -0.95568 19055 ft 383 kts 232°
2026-04-27 16:20 39.17472 -1.01054 20242 ft 389 kts 232°
2026-04-27 16:21 39.15820 -1.03829 20809 ft 392 kts 232°
2026-04-27 16:21 39.10790 -1.12267 22395 ft 400 kts 232°
2026-04-27 16:22 39.09091 -1.15114 22910 ft 402 kts 232°
2026-04-27 16:22 39.05656 -1.20860 23823 ft 409 kts 232°
2026-04-27 16:22 39.03916 -1.23765 24297 ft 411 kts 232°
2026-04-27 16:23 39.02168 -1.26682 24771 ft 413 kts 232°
2026-04-27 16:23 38.98639 -1.32572 25594 ft 419 kts 233°
2026-04-27 16:23 38.96859 -1.35542 25990 ft 421 kts 233°
2026-04-27 16:24 38.95064 -1.38532 26401 ft 423 kts 233°
2026-04-27 16:24 38.91452 -1.44549 27138 ft 428 kts 233°
2026-04-27 16:25 38.87790 -1.50628 27870 ft 432 kts 233°
2026-04-27 16:25 38.84096 -1.56752 28553 ft 436 kts 233°
2026-04-27 16:26 38.80359 -1.62939 29176 ft 441 kts 233°
2026-04-27 16:26 38.76606 -1.69138 30038 ft 438 kts 233°
2026-04-27 16:27 38.72890 -1.75267 30927 ft 434 kts 233°
2026-04-27 16:27 38.67366 -1.84341 32116 ft 430 kts 233°
2026-04-27 16:28 38.63673 -1.90393 32844 ft 428 kts 234°
2026-04-27 16:28 38.60021 -1.96368 33549 ft 425 kts 233°
2026-04-27 16:29 38.54574 -2.05266 34500 ft 422 kts 233°
2026-04-27 16:30 38.50976 -2.11125 35048 ft 422 kts 233°
2026-04-27 16:30 38.47327 -2.17066 35043 ft 426 kts 233°
2026-04-27 16:31 38.38302 -2.31733 35040 ft 419 kts 233°
2026-04-27 16:32 38.32595 -2.40163 35044 ft 419 kts 228°
2026-04-27 16:33 38.26520 -2.48199 35038 ft 420 kts 228°
2026-04-27 16:33 38.22478 -2.53583 35033 ft 421 kts 228°
2026-04-27 16:34 38.18444 -2.58972 35027 ft 421 kts 228°
2026-04-27 16:34 38.14405 -2.64369 35015 ft 421 kts 228°
2026-04-27 16:35 38.10366 -2.69753 35014 ft 422 kts 228°
2026-04-27 16:36 38.04285 -2.77845 35001 ft 422 kts 228°
2026-04-27 16:36 38.00228 -2.83233 34993 ft 423 kts 228°
2026-04-27 16:37 37.96158 -2.88624 34985 ft 423 kts 227°
2026-04-27 16:37 37.92084 -2.93998 34997 ft 422 kts 227°
2026-04-27 16:38 37.88011 -2.99350 35002 ft 422 kts 227°
2026-04-27 16:38 37.83940 -3.04695 34986 ft 422 kts 227°
2026-04-27 16:39 37.79887 -3.10008 34974 ft 421 kts 227°
2026-04-27 16:39 37.75823 -3.15330 34968 ft 420 kts 227°
2026-04-27 16:40 37.71771 -3.20630 34960 ft 419 kts 227°
2026-04-27 16:40 37.67725 -3.25931 34962 ft 418 kts 227°
2026-04-27 16:41 37.63687 -3.31218 34963 ft 418 kts 226°
2026-04-27 16:41 37.59678 -3.36460 34963 ft 418 kts 226°
2026-04-27 16:42 37.55638 -3.41733 34965 ft 418 kts 226°
2026-04-27 16:42 37.51594 -3.47002 34965 ft 418 kts 226°
2026-04-27 16:43 37.47537 -3.52278 34958 ft 420 kts 226°
2026-04-27 16:43 37.43472 -3.57559 34967 ft 420 kts 226°
2026-04-27 16:44 37.39395 -3.62844 34964 ft 421 kts 226°
2026-04-27 16:44 37.35306 -3.68129 34962 ft 422 kts 226°
2026-04-27 16:45 37.31203 -3.73421 34961 ft 423 kts 226°
2026-04-27 16:45 37.27100 -3.78703 34960 ft 422 kts 226°
2026-04-27 16:46 37.23002 -3.83973 34962 ft 421 kts 226°
2026-04-27 16:46 37.18914 -3.89218 34959 ft 420 kts 226°
2026-04-27 16:47 37.14837 -3.94447 34969 ft 419 kts 226°
2026-04-27 16:47 37.10766 -3.99657 34972 ft 418 kts 226°
2026-04-27 16:48 37.06704 -4.04848 34976 ft 417 kts 225°
2026-04-27 16:48 37.02648 -4.10022 34972 ft 417 kts 225°
2026-04-27 16:49 36.96557 -4.17778 34981 ft 417 kts 225°
2026-04-27 16:49 36.92490 -4.22946 34995 ft 417 kts 225°
2026-04-27 16:50 36.88414 -4.28119 35005 ft 417 kts 225°
2026-04-27 16:50 36.84341 -4.33279 35001 ft 417 kts 225°
2026-04-27 16:51 36.80073 -4.38169 35000 ft 417 kts 214°
2026-04-27 16:51 36.75171 -4.42047 35013 ft 418 kts 212°
2026-04-27 16:52 36.70235 -4.45891 35017 ft 418 kts 213°
2026-04-27 16:52 36.65355 -4.49728 35021 ft 418 kts 213°
2026-04-27 16:53 36.60451 -4.53606 35021 ft 418 kts 213°
2026-04-27 16:53 36.55538 -4.57489 35021 ft 419 kts 213°
2026-04-27 16:54 36.50617 -4.61372 35018 ft 419 kts 213°
2026-04-27 16:54 36.45689 -4.65253 35017 ft 419 kts 213°
2026-04-27 16:55 36.40763 -4.69128 35004 ft 420 kts 213°
2026-04-27 16:55 36.35826 -4.73003 35011 ft 419 kts 213°
2026-04-27 16:56 36.30892 -4.76874 34995 ft 420 kts 213°
2026-04-27 16:56 36.25954 -4.80740 35006 ft 420 kts 213°
2026-04-27 16:57 36.21017 -4.84600 34980 ft 419 kts 213°
2026-04-27 16:57 36.16087 -4.88449 34994 ft 419 kts 213°
2026-04-27 16:58 36.11177 -4.92317 34987 ft 418 kts 213°
2026-04-27 16:58 36.06283 -4.96212 34995 ft 418 kts 213°
2026-04-27 16:59 36.01398 -5.00092 34993 ft 417 kts 213°
2026-04-27 16:59 35.96505 -5.03969 34992 ft 417 kts 213°
2026-04-27 17:00 35.89179 -5.09760 34987 ft 417 kts 213°
2026-04-27 17:01 35.85123 -5.12961 34991 ft 416 kts 213°
2026-04-27 17:01 35.80348 -5.16989 34992 ft 416 kts 217°
2026-04-27 17:02 35.75731 -5.21280 34984 ft 416 kts 217°
2026-04-27 17:02 35.71133 -5.25575 34978 ft 416 kts 217°
2026-04-27 17:03 35.66520 -5.29845 34973 ft 415 kts 217°
2026-04-27 17:03 35.61891 -5.34103 34972 ft 415 kts 217°
2026-04-27 17:04 35.57260 -5.38349 34967 ft 415 kts 217°
2026-04-27 17:04 35.52624 -5.42592 34963 ft 416 kts 217°
2026-04-27 17:05 35.47991 -5.46829 34962 ft 416 kts 217°
2026-04-27 17:05 35.43348 -5.51066 34955 ft 416 kts 217°
2026-04-27 17:06 35.38700 -5.55302 34939 ft 416 kts 217°
2026-04-27 17:06 35.34056 -5.59530 34932 ft 416 kts 217°
2026-04-27 17:07 35.29410 -5.63752 34921 ft 415 kts 217°
2026-04-27 17:07 35.24770 -5.67962 34912 ft 415 kts 217°
2026-04-27 17:08 35.20132 -5.72165 34912 ft 415 kts 216°
2026-04-27 17:08 35.15495 -5.76366 34902 ft 415 kts 216°
2026-04-27 17:09 35.10854 -5.80556 34904 ft 414 kts 216°
2026-04-27 17:09 35.06220 -5.84735 34894 ft 414 kts 216°
2026-04-27 17:10 35.01584 -5.88911 34885 ft 414 kts 216°
2026-04-27 17:10 34.96955 -5.93074 34883 ft 413 kts 216°
2026-04-27 17:11 34.92531 -5.97550 34852 ft 414 kts 225°
2026-04-27 17:11 34.86565 -6.05142 34830 ft 414 kts 225°
2026-04-27 17:12 34.80577 -6.12712 34833 ft 414 kts 225°
2026-04-27 17:13 34.76569 -6.17728 34835 ft 414 kts 225°
2026-04-27 17:13 34.72549 -6.22743 34824 ft 414 kts 225°
2026-04-27 17:14 34.68525 -6.27749 34837 ft 414 kts 224°
2026-04-27 17:14 34.64492 -6.32758 34833 ft 415 kts 224°
2026-04-27 17:15 34.60457 -6.37764 34822 ft 415 kts 224°
2026-04-27 17:15 34.56421 -6.42766 34832 ft 415 kts 224°
2026-04-27 17:16 34.52384 -6.47763 34834 ft 414 kts 224°
2026-04-27 17:16 34.48346 -6.52757 34815 ft 415 kts 224°
2026-04-27 17:17 34.44305 -6.57746 34807 ft 415 kts 224°
2026-04-27 17:17 34.40262 -6.62725 34809 ft 414 kts 224°
2026-04-27 17:18 34.34222 -6.70148 34820 ft 415 kts 224°
2026-04-27 17:18 34.30143 -6.75155 34807 ft 415 kts 224°
2026-04-27 17:19 34.26117 -6.80094 34804 ft 415 kts 224°
2026-04-27 17:19 34.22062 -6.85057 34807 ft 415 kts 224°
2026-04-27 17:20 34.18003 -6.90014 34810 ft 415 kts 224°
2026-04-27 17:20 34.13938 -6.94973 34802 ft 416 kts 224°
2026-04-27 17:21 34.09867 -6.99936 34811 ft 416 kts 224°
2026-04-27 17:21 34.05789 -7.04897 34798 ft 416 kts 224°
2026-04-27 17:22 34.01703 -7.09859 34816 ft 417 kts 224°
2026-04-27 17:22 33.97616 -7.14822 34821 ft 417 kts 224°
2026-04-27 17:23 33.93521 -7.19786 34815 ft 418 kts 223°
2026-04-27 17:23 33.89425 -7.24741 34829 ft 418 kts 223°
2026-04-27 17:24 33.85327 -7.29698 34818 ft 418 kts 223°
2026-04-27 17:24 33.81219 -7.34652 34830 ft 418 kts 223°
2026-04-27 17:25 33.77108 -7.39600 34831 ft 418 kts 223°
2026-04-27 17:25 33.72995 -7.44546 34834 ft 418 kts 223°
2026-04-27 17:26 33.68879 -7.49490 34831 ft 418 kts 223°
2026-04-27 17:26 33.64766 -7.54425 34834 ft 418 kts 223°
2026-04-27 17:27 33.60647 -7.59360 34831 ft 418 kts 223°
2026-04-27 17:27 33.56529 -7.64285 34841 ft 418 kts 223°
2026-04-27 17:28 33.52408 -7.69205 34835 ft 418 kts 223°
2026-04-27 17:29 33.46213 -7.76591 34833 ft 419 kts 223°
2026-04-27 17:29 33.42080 -7.81507 34832 ft 419 kts 223°
2026-04-27 17:30 33.37945 -7.86422 34834 ft 419 kts 223°
2026-04-27 17:30 33.31736 -7.93790 34834 ft 419 kts 223°
2026-04-27 17:31 33.27590 -7.98697 34833 ft 419 kts 223°
2026-04-27 17:31 33.23455 -8.03588 34831 ft 418 kts 223°
2026-04-27 17:32 33.17246 -8.10917 34845 ft 419 kts 223°
2026-04-27 17:33 33.13100 -8.15806 34841 ft 420 kts 223°
2026-04-27 17:33 33.08936 -8.20705 34840 ft 420 kts 223°
2026-04-27 17:34 33.04767 -8.25598 34843 ft 421 kts 223°
2026-04-27 17:34 33.00592 -8.30498 34852 ft 421 kts 223°
2026-04-27 17:35 32.96420 -8.35388 34854 ft 421 kts 223°
2026-04-27 17:35 32.92242 -8.40279 34854 ft 421 kts 223°
2026-04-27 17:36 32.88062 -8.45163 34863 ft 421 kts 223°
2026-04-27 17:36 32.83903 -8.50012 34860 ft 421 kts 223°
2026-04-27 17:37 32.79716 -8.54891 34864 ft 421 kts 223°
2026-04-27 17:37 32.75529 -8.59761 34871 ft 421 kts 223°
2026-04-27 17:38 32.71342 -8.64626 34870 ft 421 kts 223°
2026-04-27 17:38 32.67145 -8.69495 34873 ft 422 kts 223°
2026-04-27 17:39 32.62950 -8.74359 34882 ft 422 kts 223°
2026-04-27 17:39 32.58751 -8.79220 34877 ft 422 kts 223°
2026-04-27 17:40 32.54549 -8.84074 34884 ft 421 kts 222°
2026-04-27 17:40 32.50350 -8.88920 34891 ft 421 kts 222°
2026-04-27 17:41 32.46148 -8.93761 34888 ft 422 kts 223°
2026-04-27 17:41 32.41940 -8.98603 34892 ft 422 kts 222°
2026-04-27 17:42 32.37731 -9.03440 34889 ft 422 kts 222°
2026-04-27 17:42 32.33517 -9.08278 34887 ft 422 kts 223°
2026-04-27 17:43 32.29298 -9.13113 34888 ft 422 kts 223°
2026-04-27 17:43 32.25079 -9.17941 34902 ft 423 kts 223°
2026-04-27 17:44 32.21567 -9.21957 34896 ft 423 kts 223°
2026-04-27 17:44 32.17330 -9.26791 34902 ft 424 kts 223°
2026-04-27 17:45 32.13087 -9.31628 34908 ft 424 kts 223°
2026-04-27 17:45 32.08838 -9.36468 34908 ft 425 kts 223°
2026-04-27 17:46 32.04575 -9.41315 34918 ft 426 kts 223°
2026-04-27 17:46 32.00304 -9.46164 34918 ft 427 kts 223°
2026-04-27 17:47 31.96027 -9.51014 34929 ft 427 kts 223°
2026-04-27 17:47 31.91738 -9.55871 34923 ft 428 kts 223°
2026-04-27 17:48 31.87448 -9.60721 34923 ft 427 kts 223°
2026-04-27 17:48 31.83159 -9.65563 34936 ft 428 kts 223°
2026-04-27 17:49 31.78865 -9.70406 34939 ft 428 kts 223°
2026-04-27 17:49 31.74569 -9.75243 34937 ft 428 kts 223°
2026-04-27 17:50 31.70264 -9.80085 34936 ft 428 kts 223°
2026-04-27 17:50 31.63809 -9.87333 34932 ft 428 kts 223°
2026-04-27 17:51 31.59504 -9.92158 34938 ft 428 kts 223°
2026-04-27 17:51 31.55203 -9.96969 34933 ft 427 kts 223°
2026-04-27 17:52 31.50898 -10.01783 34934 ft 427 kts 223°
2026-04-27 17:52 31.46598 -10.06588 34940 ft 428 kts 223°
2026-04-27 17:53 31.42286 -10.11398 34934 ft 428 kts 223°
2026-04-27 17:53 31.37974 -10.16195 34935 ft 428 kts 223°
2026-04-27 17:54 31.33660 -10.20990 34931 ft 428 kts 223°
2026-04-27 17:54 31.29348 -10.25779 34938 ft 428 kts 223°
2026-04-27 17:55 31.25031 -10.30565 34935 ft 428 kts 223°
2026-04-27 17:55 31.20748 -10.35308 34936 ft 427 kts 223°
2026-04-27 17:56 31.16432 -10.40083 34927 ft 427 kts 223°
2026-04-27 17:56 31.12116 -10.44854 34927 ft 427 kts 223°
2026-04-27 17:57 31.07775 -10.49645 34924 ft 426 kts 223°
2026-04-27 17:57 31.03492 -10.54360 34926 ft 426 kts 223°
2026-04-27 17:58 30.99175 -10.59107 34925 ft 426 kts 223°
2026-04-27 17:58 30.94862 -10.63846 34926 ft 426 kts 223°
2026-04-27 17:59 30.90545 -10.68585 34927 ft 427 kts 223°